Location: Borkenes
(68.7830°N, 16.1830°E)
Time: 16:13:21
(UTC+01:00)

Transit 2A Rocket - All Passes

Search period start: 09 December 2019 00:00
Search period end: 19 December 2019 00:00
Orbit: 594 x 909 km, 66.7° (Epoch: 08 December)

Date Brightness Start Highest point End Pass type
(mag) Time Alt. Az. Time Alt. Az. Time Alt. Az.
09 Dec - 01:36:06 10° W 01:38:29 14° WSW 01:40:54 10° SSW night (unlit)
09 Dec - 16:24:47 10° SE 16:26:37 12° ESE 16:28:26 10° E visible
09 Dec - 18:04:08 10° SSW 18:08:01 32° SE 18:11:52 10° ENE visible
09 Dec - 19:45:47 10° WSW 19:50:03 59° SSE 19:54:21 10° E visible
09 Dec - 21:28:05 10° W 21:32:23 66° S 21:36:45 10° ESE visible
09 Dec - 23:10:29 10° WNW 23:14:35 42° SSW 23:18:48 10° SE night (unlit)
10 Dec - 00:53:13 10° W 00:56:18 19° SW 00:59:27 10° S night (unlit)
10 Dec - 17:22:07 10° S 17:25:43 25° SE 17:29:17 10° ENE visible
10 Dec - 19:03:22 10° SW 19:07:36 52° SSE 19:11:50 10° E visible
10 Dec - 20:45:35 10° W 20:49:53 68° S 20:54:16 10° E visible
10 Dec - 22:27:59 10° W 22:32:10 50° SSW 22:36:29 10° SE night (unlit)
11 Dec - 00:10:31 10° WNW 00:14:02 24° SW 00:17:40 10° S night (unlit)
11 Dec - 16:40:17 10° S 16:43:28 20° SE 16:46:36 10° E visible
11 Dec - 18:21:02 10° SW 18:25:11 44° SSE 18:29:19 10° ENE visible
11 Dec - 20:03:06 10° WSW 20:07:24 67° S 20:11:45 10° E visible
11 Dec - 21:45:28 10° W 21:49:44 58° SSW 21:54:05 10° ESE visible
11 Dec - 23:27:55 10° WNW 23:31:45 31° SW 23:35:41 10° SSE night (unlit)
12 Dec - 01:11:29 10° W 01:13:08 12° WSW 01:14:48 10° SW night (unlit)
12 Dec - 15:58:46 10° SSE 16:01:16 15° ESE 16:03:45 10° E visible
12 Dec - 17:38:48 10° SSW 17:42:48 36° SE 17:46:48 10° ENE visible
12 Dec - 19:20:38 10° WSW 19:24:54 63° SSE 19:29:15 10° E visible
12 Dec - 21:02:58 10° W 21:07:15 64° SSW 21:11:38 10° ESE visible
12 Dec - 22:45:23 10° WNW 22:49:24 38° SW 22:53:32 10° SSE night (unlit)
13 Dec - 00:28:18 10° W 00:30:59 16° WSW 00:33:44 10° SSW night (unlit)
13 Dec - 15:17:54 10° SE 15:19:08 11° ESE 15:20:22 10° E visible
13 Dec - 16:56:41 10° SSW 17:00:27 29° SE 17:04:14 10° ENE visible
13 Dec - 18:38:11 10° WSW 18:42:27 57° SSE 18:46:44 10° E visible
13 Dec - 20:20:28 10° W 20:24:46 67° S 20:29:09 10° ESE visible
13 Dec - 22:02:51 10° WNW 22:07:00 45° SSW 22:11:17 10° SE visible
13 Dec - 23:45:30 10° W 23:48:46 21° SW 23:52:08 10° S night (unlit)
14 Dec - 16:14:43 10° S 16:18:10 23° SE 16:21:37 10° ENE visible
14 Dec - 17:55:49 10° SW 18:00:00 49° SSE 18:04:13 10° E visible
14 Dec - 19:37:58 10° W 19:42:16 68° S 19:46:39 10° E visible
14 Dec - 21:20:21 10° W 21:24:35 53° SSW 21:28:56 10° SE visible
14 Dec - 23:02:51 10° WNW 23:06:30 27° SW 23:10:17 10° S night (unlit)
15 Dec - 15:32:58 10° SSE 15:35:56 18° SE 15:38:54 10° E visible
15 Dec - 17:13:30 10° SW 17:17:36 41° SSE 17:21:42 10° ENE visible
15 Dec - 18:55:29 10° WSW 18:59:47 66° S 19:04:09 10° E visible
15 Dec - 20:37:51 10° W 20:42:07 60° SSW 20:46:31 10° ESE visible
15 Dec - 22:20:17 10° WNW 22:24:11 33° SW 22:28:14 10° SSE visible
16 Dec - 00:03:31 10° W 00:05:39 13° WSW 00:07:50 10° SSW night (unlit)
16 Dec - 14:51:36 10° SSE 14:53:46 14° ESE 14:55:55 10° E visible
16 Dec - 16:31:18 10° SSW 16:35:14 34° SE 16:39:10 10° ENE visible
16 Dec - 18:13:02 10° WSW 18:17:18 61° SSE 18:21:38 10° E visible
16 Dec - 19:55:21 10° W 19:59:39 65° S 20:04:03 10° ESE visible
16 Dec - 21:37:44 10° WNW 21:41:49 40° SSW 21:46:03 10° SE visible
16 Dec - 23:20:32 10° W 23:23:29 18° SW 23:26:30 10° SSW night (unlit)
17 Dec - 15:49:14 10° SSW 15:52:55 27° SE 15:56:35 10° ENE visible
17 Dec - 17:30:37 10° SW 17:34:50 54° SSE 17:39:07 10° E visible
17 Dec - 19:12:51 10° W 19:17:09 68° S 19:21:33 10° E visible
17 Dec - 20:55:14 10° W 20:59:25 48° SSW 21:03:45 10° SE visible
17 Dec - 22:37:48 10° WNW 22:41:15 23° SW 22:44:48 10° S visible
18 Dec - 15:07:20 10° S 15:10:39 21° SE 15:13:56 10° E visible
18 Dec - 16:48:15 10° SW 16:52:24 47° SSE 16:56:36 10° E visible
18 Dec - 18:30:21 10° WSW 18:34:39 67° S 18:39:03 10° E visible
18 Dec - 20:12:43 10° W 20:16:58 56° SSW 20:21:22 10° ESE visible
18 Dec - 21:55:11 10° WNW 21:58:57 29° SW 22:02:52 10° SSE visible
18 Dec - 23:39:06 10° W 23:40:18 11° WSW 23:41:30 10° SW night (unlit)
